GFSNIL_850_temp_042.txt.gz
Temp
15 14 13 13 12 12 11 12 10 10 10 9 9 8 6 7 7 7 6 6 6 6
15 14 14 13 12 12 13 12 10 9 9 8 8 7 7 7 7 6 6 5 5 4
14 14 13 12 12 13 12 10 10 9 8 8 7 7 7 6 6 5 4 4 3 2
13 13 13 12 12 12 11 10 10 9 9 8 8 7 6 6 5 4 3 2 2 1
14 12 12 12 11 10 10 10 9 9 8 8 7 6 5 4 3 3 2 1 1 1
14 11 12 11 10 10 10 9 8 8 7 7 5 4 4 3 2 2 1 1 1 0
11 11 12 10 9 9 9 8 8 7 6 5 5 3 3 2 1 1 1 0 -0 -1
12 11 10 9 9 8 8 8 7 6 6 5 3 3 3 2 1 2 0 -1 -0 -0
10 9 8 8 8 8 7 7 6 6 5 4 3 3 2 1 -0 -0 -1 -1 -1 -1
8 7 6 6 6 6 5 5 4 4 3 3 2 1 1 -0 -1 -1 -1 -1 -1 -1
7 7 7 6 6 5 5 4 4 3 2 2 1 -0 -1 -1 -1 -1 -1 -2 -2 -3
5 5 4 4 4 4 4 3 2 1 0 -0 -1 -1 -1 -1 -2 -2 -2 -2 -3 -3
4 4 3 2 1 1 0 0 -0 -0 -1 -1 -2 -2 -2 -2 -3 -3 -3 -2 -3 -3
3 3 2 2 0 -0 -0 -0 -0 -1 -2 -2 -2 -2 -3 -3 -3 -2 -2 -3 -3 -3

GFSNIL_850_temp_045.txt.gz
Temp
14 13 13 13 13 13 13 13 13 11 10 10 10 9 8 8 8 7 6 7 6 6
14 13 13 13 13 13 13 13 12 12 11 10 9 9 8 7 7 7 6 6 5 5
14 13 13 13 13 13 13 12 11 11 10 9 9 8 8 7 6 5 5 5 4 4
14 14 14 14 14 13 12 11 11 10 10 9 9 8 8 7 5 5 4 4 3 3
14 14 14 13 14 12 12 10 10 9 9 9 8 8 7 6 5 4 4 3 2 1
14 13 13 13 13 13 12 9 9 9 8 8 7 7 7 5 4 4 3 2 1 1
15 15 13 11 11 12 10 9 9 9 8 8 7 7 5 4 4 3 2 1 0 0
14 13 12 10 11 11 10 9 8 8 8 7 6 5 4 4 3 2 1 0 -0 0
14 12 10 10 10 10 9 8 8 7 7 6 5 4 3 2 2 1 -1 -0 -0 -1
11 11 10 10 9 8 8 7 7 6 5 4 3 2 2 1 0 -1 -1 -1 -1 -1
10 10 10 8 7 6 6 5 5 4 3 2 2 1 0 -0 -1 -1 -2 -2 -2 -2
9 9 8 7 6 5 5 4 4 3 2 1 1 -0 -1 -1 -2 -2 -2 -2 -2 -3
7 7 7 6 5 4 3 3 2 1 -0 -1 -1 -1 -2 -2 -2 -2 -2 -2 -2 -2
6 6 5 4 3 3 1 0 -0 -1 -1 -2 -1 -1 -2 -2 -2 -3 -2 -3 -2 -3

GFSNIL_850_temp_048.txt.gz
Temp
12 11 12 12 12 12 13 12 12 12 13 12 11 11 10 9 9 9 8 8 7 6
12 12 12 12 12 12 12 12 12 12 12 12 11 10 9 9 8 8 8 7 6 5
13 12 12 12 12 12 12 12 12 12 12 12 11 9 9 9 8 7 7 6 5 5
14 14 13 12 12 12 13 12 13 12 12 11 10 9 9 9 8 7 7 6 5 5
13 13 12 12 12 11 12 12 13 13 11 10 10 9 8 8 8 7 7 6 5 4
13 13 13 12 13 11 11 11 12 11 10 10 9 9 8 8 7 6 5 4 4 3
14 14 13 13 13 13 12 11 10 10 10 9 9 8 8 7 7 5 4 3 3 2
14 13 12 13 13 13 11 10 9 9 9 8 8 8 7 6 5 4 3 3 2 1
14 12 14 13 12 11 10 9 9 9 9 8 8 7 6 4 3 3 2 1 0 -0
14 13 12 10 10 10 9 9 9 9 8 7 6 5 4 3 2 2 1 -0 -1 -1
11 11 11 10 9 9 9 8 8 7 6 5 5 4 3 2 1 0 -1 -1 -1 -2
10 10 9 9 9 8 7 6 5 5 4 4 3 2 1 1 -0 -1 -2 -2 -3 -3
10 9 10 9 8 7 5 5 4 3 2 2 1 1 -0 -1 -1 -2 -2 -3 -3 -3
9 9 8 8 7 7 5 4 3 2 1 1 -0 -1 -2 -2 -2 -2 -3 -3 -3 -3

GFSNIL_850_temp_051.txt.gz
Temp
10 10 10 10 10 10 11 11 12 12 12 11 11 11 11 11 11 9 10 9 9 8
11 11 12 12 11 11 12 12 12 12 12 11 11 11 11 11 11 10 9 9 8 8
12 12 12 12 12 12 12 12 12 12 12 12 12 11 11 10 10 10 8 8 7 7
12 12 11 12 12 12 12 12 11 12 11 11 12 11 10 10 10 9 8 8 7 7
12 12 11 11 12 12 11 11 12 10 11 11 11 11 10 9 9 9 9 8 7 6
12 12 12 12 12 12 12 12 11 10 10 11 11 9 9 9 9 8 8 8 7 6
13 13 13 13 12 12 12 12 12 12 10 11 10 9 9 9 8 8 8 7 5 4
13 13 13 13 12 12 12 12 12 12 11 10 9 9 9 8 8 8 7 5 4 3
13 13 14 13 12 12 12 12 12 10 10 9 9 9 9 8 8 7 5 4 3 2
14 13 13 13 12 12 11 10 11 10 10 9 9 8 8 7 6 5 4 3 2 1
14 13 13 13 13 12 10 10 10 10 9 8 8 8 7 6 4 3 2 1 0 -0
15 14 12 10 10 10 10 9 9 9 8 8 6 5 5 3 2 2 1 -0 -1 -1
14 10 10 10 10 9 9 9 8 7 6 5 4 3 2 2 1 0 -1 -1 -2 -3
10 10 10 10 9 9 8 6 5 4 4 3 2 2 0 -0 -1 -1 -2 -3 -3 -3

GFSNIL_850_temp_054.txt.gz
Temp
9 9 9 10 10 10 10 11 11 11 10 11 11 11 11 11 10 10 10 10 10 10
9 9 9 9 9 10 10 10 10 11 12 12 12 11 10 10 10 10 10 10 10 10
11 10 10 9 10 10 11 12 12 12 12 11 11 11 10 10 11 11 10 10 10 9
14 13 12 11 11 11 11 11 11 12 11 11 11 10 11 11 11 11 10 10 9 9
13 13 13 12 12 12 12 12 12 12 11 10 10 10 11 11 11 10 10 9 9 8
14 13 13 13 13 12 12 12 12 11 11 11 11 11 11 10 11 9 9 9 9 8
14 14 14 14 13 12 12 12 12 12 11 12 11 11 11 10 10 9 9 9 8 8
15 14 13 13 13 12 12 12 11 11 11 11 11 11 11 11 10 10 9 8 8 7
15 14 12 12 12 11 11 11 11 10 10 10 10 12 10 10 9 9 8 8 7 5
16 14 13 12 11 11 10 9 9 9 10 10 9 9 9 9 9 9 7 7 5 4
17 15 13 12 10 10 10 10 10 10 9 9 10 9 8 8 8 7 6 5 4 3
16 15 13 11 10 10 10 9 9 9 9 9 9 8 8 8 7 5 4 3 2 1
16 14 11 10 10 9 9 9 8 9 9 8 8 7 6 5 5 4 3 2 1 -0
13 10 10 9 9 8 8 8 8 8 7 6 5 5 4 3 3 2 1 0 -1 -2

GFSNIL_850_temp_057.txt.gz
Temp
9 9 9 9 10 10 10 10 10 10 10 10 11 11 11 11 11 11 11 10 10 9
9 9 9 9 9 10 10 10 10 10 10 10 11 11 11 11 12 11 11 10 9 10
10 9 9 9 9 9 9 10 10 10 11 11 11 11 11 11 11 11 10 10 10 10
13 12 11 10 10 9 9 9 10 10 10 11 11 11 11 11 11 11 10 10 10 10
13 13 13 13 13 13 12 11 11 11 10 10 10 10 11 12 12 11 10 9 9 10
14 13 14 15 17 14 13 13 12 12 11 11 11 11 11 10 10 10 10 9 10 9
15 15 15 14 13 13 14 14 14 13 13 12 12 11 11 10 10 10 10 9 10 9
17 16 14 13 13 13 13 13 13 12 12 12 11 11 11 11 10 9 9 9 9 9
15 14 15 15 14 13 13 13 12 11 11 11 11 11 11 9 9 9 9 9 9 8
16 16 15 14 12 12 12 11 11 10 10 11 10 10 10 10 9 9 9 9 9 8
17 16 15 13 12 11 10 10 10 10 9 9 10 9 9 9 9 9 9 8 8 7
17 16 15 14 12 11 10 9 9 9 9 9 9 9 9 8 8 8 7 6 6 5
14 13 12 11 10 10 10 9 9 9 9 8 8 8 8 8 7 6 5 4 3 2
12 12 10 10 10 9 9 9 9 8 8 8 7 7 5 5 5 5 4 3 2 1

GFSNIL_850_temp_063.txt.gz
Temp
9 9 9 8 9 10 10 10 10 10 10 10 10 10 9 10 10 11 11 11 11 10
9 9 9 9 9 10 10 9 9 10 10 10 10 11 10 10 11 11 11 11 10 10
9 9 9 9 9 9 10 9 9 9 11 11 11 11 10 10 11 11 11 10 10 10
9 9 9 9 9 9 9 9 9 10 11 11 11 11 11 10 10 10 10 10 9 9
9 9 10 10 10 10 9 9 9 9 10 11 11 11 11 11 10 9 9 10 9 9
11 10 10 10 10 10 10 10 9 10 10 10 10 10 9 9 10 9 10 10 10 10
11 11 11 11 10 10 10 10 10 10 10 10 10 10 9 9 9 9 10 9 9 9
12 11 11 11 10 10 10 10 10 10 10 10 10 10 9 9 9 9 9 9 9 9
13 12 11 11 10 10 10 10 10 10 10 10 10 11 11 10 9 9 9 9 9 9
13 12 12 11 11 10 10 10 10 10 9 10 10 11 10 9 9 8 9 9 9 8
13 13 12 11 11 11 10 10 10 9 9 9 9 9 9 9 9 8 8 8 8 8
14 13 13 12 11 11 10 10 10 9 9 9 9 9 9 9 8 8 8 8 8 8
15 14 13 12 12 11 10 10 10 10 9 9 9 9 9 9 9 8 8 8 8 7
15 14 13 12 12 11 10 10 10 9 9 9 9 9 9 9 9 8 7 7 5 4